DELTA 1 DEB

基本信息
目录编号:
29181
目录名称:
DELTA 1 DEB
国际标识:
1968-002E
轨道中心:
EARTH
物体状态:
在轨
发射日期:
1968-01-11 UTC
轨道信息
数据来源: 国际轨道数据
星历时间: 2025-01-13T16:48:35+0800
半长轴: 7672.858km
偏心率: 0.030685
轨道倾角: 105.792°
近地点辐角: 334.802°
升交点赤经: 291.565°
平近点角: 23.835°
近地点: 1059.281km
远地点: 1530.165km
周期: 111.480分钟
每日圈数: 12.91716
详细信息
发射场:
AFWTR
轨道高度:
LEO
数据来源:
AOE Integration Group
参考系:
TEME
时间系统:
UTC
历元类型:
SGP4
2D轨道图
3D轨道图
轨道高度分析图
轨道倾角分析图
轨道综合分析图
查看轨道综合分析图